RUK7059 LTBS-EGSS

Flight info

Callsign RUK7059
Flight time 3h 57m
Altitude 38000
Route KEKIK N127 UFQUM UN127 RIKSO DCT LMO UN128 FSK UL608 DISOR DCT LONTA UL608 DOLEV DCT GENLU DCT PODOB DCT EVTON DCT KANIN DCT UMVEG DCT KPT DCT VEKIR DCT ADENU L608 LIRSU DCT KOZUF DCT IMPOH DCT SASKI L608 SUMUM Y6 TOSVA
Aircraft B38M/M-SADE3FGILRWY/SB1

Departure

Time 2026-05-08 15:28
Airport Dalaman International Airport (LTBS)

Arrival

Time 2026-05-08 19:26
Airport London Stansted Airport (EGSS)
Time Latitude Longitude Altitude Speed Heading
2026-05-08 14:33 36.72185 28.79034 14 ft 0 kts 284°
2026-05-08 15:18 36.72179 28.79060 15 ft 4 kts 285°
2026-05-08 15:19 36.72172 28.79086 17 ft 4 kts 300°
2026-05-08 15:19 36.72156 28.79102 17 ft 4 kts
2026-05-08 15:19 36.72132 28.79096 16 ft 3 kts 15°
2026-05-08 15:19 36.72128 28.79094 15 ft 0 kts 15°
2026-05-08 15:22 36.72142 28.79099 15 ft 3 kts 15°
2026-05-08 15:23 36.72182 28.79112 16 ft 10 kts 14°
2026-05-08 15:23 36.72247 28.79133 14 ft 0 kts 14°
2026-05-08 15:25 36.72295 28.79158 16 ft 11 kts 45°
2026-05-08 15:25 36.72292 28.79256 14 ft 13 kts 105°
2026-05-08 15:26 36.72291 28.79368 16 ft 14 kts 46°
2026-05-08 15:26 36.72389 28.79405 14 ft 16 kts 15°
2026-05-08 15:26 36.72499 28.79442 14 ft 18 kts 15°
2026-05-08 15:26 36.72612 28.79481 14 ft 17 kts 26°
2026-05-08 15:27 36.72625 28.79613 14 ft 18 kts 121°
2026-05-08 15:27 36.72513 28.79661 14 ft 17 kts 195°
2026-05-08 15:27 36.72504 28.79658 14 ft 0 kts 195°
2026-05-08 15:27 36.72441 28.79636 14 ft 35 kts 195°
2026-05-08 15:28 36.71950 28.79470 15 ft 109 kts 195°
2026-05-08 15:28 36.71015 28.79152 46 ft 164 kts 195°
2026-05-08 15:28 36.69881 28.78758 648 ft 171 kts 195°
2026-05-08 15:28 36.68735 28.78362 1518 ft 172 kts 195°
2026-05-08 15:29 36.67536 28.77959 2090 ft 188 kts 196°
2026-05-08 15:29 36.66201 28.77504 2511 ft 211 kts 196°
2026-05-08 15:29 36.64693 28.76966 2894 ft 239 kts 201°
2026-05-08 15:29 36.63300 28.75701 3322 ft 261 kts 236°
2026-05-08 15:30 36.62692 28.73558 4030 ft 265 kts 271°
2026-05-08 15:30 36.63008 28.71340 4889 ft 255 kts 287°
2026-05-08 15:30 36.63497 28.69151 5340 ft 270 kts 285°
2026-05-08 15:30 36.63998 28.66868 6202 ft 274 kts 285°
2026-05-08 15:31 36.64332 28.65351 6802 ft 276 kts 285°
2026-05-08 15:31 36.64838 28.63045 7723 ft 275 kts 284°
2026-05-08 15:31 36.65453 28.60793 8655 ft 276 kts 298°
2026-05-08 15:31 36.66717 28.58992 9599 ft 279 kts 318°
2026-05-08 15:32 36.68231 28.57442 10356 ft 286 kts 317°
2026-05-08 15:32 36.69819 28.55815 10761 ft 305 kts 317°
2026-05-08 15:32 36.71501 28.54112 11270 ft 317 kts 318°
2026-05-08 15:32 36.73219 28.52387 12117 ft 317 kts 318°
2026-05-08 15:33 36.74947 28.50657 12930 ft 320 kts 319°
2026-05-08 15:33 36.76690 28.48914 13827 ft 322 kts 319°
2026-05-08 15:33 36.78638 28.47491 14592 ft 330 kts 338°
2026-05-08 15:33 36.80853 28.46669 15366 ft 333 kts 339°
2026-05-08 15:34 36.83066 28.45837 16055 ft 337 kts 339°
2026-05-08 15:34 36.85325 28.45003 16775 ft 339 kts 340°
2026-05-08 15:34 36.87603 28.44168 17449 ft 342 kts 340°
2026-05-08 15:34 36.89901 28.43331 18127 ft 345 kts 340°
2026-05-08 15:35 36.92222 28.42484 18710 ft 349 kts 340°
2026-05-08 15:35 36.94556 28.41633 19297 ft 351 kts 340°
2026-05-08 15:35 36.96909 28.40776 19836 ft 353 kts 339°
2026-05-08 15:35 36.99280 28.39911 20396 ft 356 kts 339°
2026-05-08 15:36 37.01666 28.39040 20941 ft 359 kts 339°
2026-05-08 15:36 37.04069 28.38162 21507 ft 361 kts 339°
2026-05-08 15:36 37.06482 28.37256 22046 ft 361 kts 335°
2026-05-08 15:36 37.08636 28.35716 22564 ft 355 kts 317°
2026-05-08 15:37 37.10535 28.33733 23108 ft 357 kts 317°
2026-05-08 15:37 37.12450 28.31728 23633 ft 359 kts 317°
2026-05-08 15:37 37.14367 28.29691 24101 ft 362 kts 316°
2026-05-08 15:37 37.16291 28.27638 24560 ft 364 kts 316°
2026-05-08 15:38 37.18219 28.25570 25008 ft 366 kts 316°
2026-05-08 15:38 37.20136 28.23507 25460 ft 369 kts 316°
2026-05-08 15:38 37.22087 28.21403 25901 ft 371 kts 315°
2026-05-08 15:38 37.24016 28.19320 26325 ft 373 kts 315°
2026-05-08 15:39 37.25992 28.17186 26749 ft 376 kts 315°
2026-05-08 15:39 37.27980 28.15037 27165 ft 378 kts 314°
2026-05-08 15:39 37.29977 28.12875 27564 ft 380 kts 314°
2026-05-08 15:39 37.31979 28.10693 27960 ft 382 kts 314°
2026-05-08 15:40 37.34001 28.08488 28350 ft 385 kts 314°
2026-05-08 15:40 37.36034 28.06271 28737 ft 387 kts 314°
2026-05-08 15:40 37.38054 28.04066 29096 ft 390 kts 314°
2026-05-08 15:40 37.40106 28.01824 29471 ft 392 kts 313°
2026-05-08 15:41 37.42171 27.99567 29844 ft 394 kts 313°
2026-05-08 15:41 37.44255 27.97288 30190 ft 397 kts 313°
2026-05-08 15:41 37.46348 27.94995 30495 ft 400 kts 313°
2026-05-08 15:41 37.48456 27.92686 30800 ft 402 kts 313°
2026-05-08 15:42 37.50572 27.90366 31098 ft 404 kts 313°
2026-05-08 15:42 37.52672 27.88062 31384 ft 407 kts 313°
2026-05-08 15:42 37.54810 27.85714 31692 ft 409 kts 313°
2026-05-08 15:42 37.56957 27.83353 31976 ft 411 kts 313°
2026-05-08 15:43 37.59116 27.80979 32267 ft 413 kts 313°
2026-05-08 15:43 37.61282 27.78594 32532 ft 415 kts 313°
2026-05-08 15:43 37.63463 27.76191 32892 ft 415 kts 313°
2026-05-08 15:43 37.65635 27.73795 33284 ft 414 kts 313°
2026-05-08 15:44 37.67804 27.71402 33669 ft 414 kts 313°
2026-05-08 15:44 37.69969 27.69011 34054 ft 413 kts 313°
2026-05-08 15:44 37.72128 27.66624 34406 ft 412 kts 313°
2026-05-08 15:44 37.74288 27.64237 34745 ft 412 kts 313°
2026-05-08 15:45 37.76441 27.61853 35055 ft 411 kts 313°
2026-05-08 15:45 37.78593 27.59468 35342 ft 411 kts 313°
2026-05-08 15:45 37.80744 27.57083 35600 ft 411 kts 313°
2026-05-08 15:45 37.82896 27.54695 35873 ft 411 kts 313°
2026-05-08 15:46 37.85041 27.52313 36135 ft 411 kts 313°
2026-05-08 15:46 37.87186 27.49929 36388 ft 411 kts 313°
2026-05-08 15:46 37.89341 27.47555 36634 ft 411 kts 314°
2026-05-08 15:46 37.91504 27.45188 36858 ft 411 kts 314°
2026-05-08 15:47 37.93639 27.42846 37092 ft 411 kts 314°
2026-05-08 15:47 37.95798 27.40476 37336 ft 411 kts 314°
2026-05-08 15:47 37.97953 27.38107 37621 ft 410 kts 314°
2026-05-08 15:47 38.00110 27.35735 37842 ft 410 kts 314°
2026-05-08 15:48 38.04414 27.30996 38145 ft 409 kts 314°
2026-05-08 15:48 38.06560 27.28631 38121 ft 407 kts 314°
2026-05-08 15:49 38.10806 27.23943 38122 ft 407 kts 314°
2026-05-08 15:49 38.15080 27.19219 38106 ft 406 kts 314°
2026-05-08 15:50 38.19351 27.14488 38103 ft 407 kts 314°
2026-05-08 15:50 38.23594 27.09783 38104 ft 407 kts 314°
2026-05-08 15:51 38.27859 27.05046 38103 ft 407 kts 314°
2026-05-08 15:51 38.32138 27.00299 38115 ft 408 kts 314°
2026-05-08 15:52 38.36423 26.95576 38118 ft 408 kts 314°
2026-05-08 15:52 38.40713 26.90838 38099 ft 408 kts 314°
2026-05-08 15:53 38.45001 26.86093 38111 ft 408 kts 314°
2026-05-08 15:53 38.49294 26.81335 38103 ft 408 kts 314°
2026-05-08 15:54 38.53557 26.76604 38102 ft 408 kts 314°
2026-05-08 15:54 38.57846 26.71834 38097 ft 408 kts 314°
2026-05-08 15:55 38.62136 26.67057 38097 ft 410 kts 313°
2026-05-08 15:55 38.68603 26.59839 38091 ft 411 kts 313°
2026-05-08 15:56 38.72883 26.55053 38095 ft 412 kts 313°
2026-05-08 15:56 38.77219 26.50196 38090 ft 414 kts 313°
2026-05-08 15:57 38.81554 26.45334 38082 ft 414 kts 313°
2026-05-08 15:57 38.85957 26.40549 38081 ft 415 kts 314°
2026-05-08 15:58 38.90382 26.35772 38083 ft 416 kts 314°
2026-05-08 15:58 38.94820 26.30968 38078 ft 418 kts 314°
2026-05-08 15:59 38.99235 26.26181 38081 ft 418 kts 314°
2026-05-08 15:59 39.03691 26.21341 38076 ft 421 kts 314°
2026-05-08 16:00 39.08163 26.16475 38083 ft 421 kts 314°
2026-05-08 16:00 39.12634 26.11601 38069 ft 421 kts 314°
2026-05-08 16:01 39.17107 26.06718 38086 ft 422 kts 314°
2026-05-08 16:01 39.21602 26.01802 38077 ft 424 kts 314°
2026-05-08 16:02 39.26071 25.96905 38063 ft 423 kts 314°
2026-05-08 16:02 39.30566 25.91972 38072 ft 425 kts 314°
2026-05-08 16:03 39.35080 25.87009 38071 ft 426 kts 314°
2026-05-08 16:03 39.39587 25.82045 38069 ft 426 kts 314°
2026-05-08 16:04 39.44091 25.77075 38078 ft 426 kts 314°
2026-05-08 16:04 39.48604 25.72088 38067 ft 427 kts 314°
2026-05-08 16:05 39.53123 25.67084 38060 ft 427 kts 314°
2026-05-08 16:05 39.57640 25.62073 38069 ft 428 kts 314°
2026-05-08 16:06 39.62180 25.57029 38065 ft 430 kts 314°
2026-05-08 16:06 39.66701 25.51996 38061 ft 430 kts 314°
2026-05-08 16:07 39.71245 25.46928 38064 ft 430 kts 314°
2026-05-08 16:07 39.75790 25.41851 38067 ft 431 kts 314°
2026-05-08 16:08 39.80344 25.36754 38063 ft 432 kts 314°
2026-05-08 16:08 39.84869 25.31683 38083 ft 432 kts 314°
2026-05-08 16:09 39.88684 25.27400 38053 ft 432 kts 314°
2026-05-08 16:09 39.93414 25.20883 38071 ft 421 kts 301°
2026-05-08 16:10 39.96862 25.14656 38048 ft 424 kts 301°
2026-05-08 16:10 40.00281 25.08379 38050 ft 424 kts 301°
2026-05-08 16:11 40.03686 25.02089 38052 ft 424 kts 301°
2026-05-08 16:11 40.07085 24.95796 38055 ft 424 kts 301°
2026-05-08 16:12 40.10475 24.89505 38064 ft 424 kts 301°
2026-05-08 16:12 40.13845 24.83238 38063 ft 424 kts 301°
2026-05-08 16:13 40.17255 24.76886 38064 ft 424 kts 301°
2026-05-08 16:13 40.20611 24.70621 38062 ft 424 kts 301°
2026-05-08 16:14 40.23997 24.64288 38060 ft 424 kts 301°
2026-05-08 16:14 40.27378 24.57951 38064 ft 424 kts 301°
2026-05-08 16:15 40.30750 24.51619 38064 ft 423 kts 301°
2026-05-08 16:15 40.34120 24.45277 38066 ft 423 kts 301°
2026-05-08 16:16 40.37473 24.38954 38066 ft 425 kts 301°
2026-05-08 16:16 40.40283 24.33645 38066 ft 426 kts 301°
2026-05-08 16:17 40.43665 24.27243 38067 ft 426 kts 301°
2026-05-08 16:17 40.47044 24.20836 38071 ft 426 kts 301°
2026-05-08 16:18 40.50415 24.14429 38065 ft 426 kts 301°
2026-05-08 16:18 40.53783 24.08016 38070 ft 426 kts 301°
2026-05-08 16:19 40.57151 24.01591 38073 ft 427 kts 301°
2026-05-08 16:19 40.60494 23.95195 38060 ft 427 kts 301°
2026-05-08 16:20 40.63855 23.88748 38075 ft 427 kts 301°
2026-05-08 16:20 40.67211 23.82299 38062 ft 427 kts 301°
2026-05-08 16:21 40.70568 23.75836 38063 ft 427 kts 301°
2026-05-08 16:21 40.73926 23.69356 38080 ft 429 kts 301°
2026-05-08 16:22 40.77293 23.62846 38068 ft 430 kts 301°
2026-05-08 16:22 40.80639 23.56364 38073 ft 430 kts 301°
2026-05-08 16:23 40.83998 23.49842 38079 ft 430 kts 301°
2026-05-08 16:23 40.87354 23.43312 38067 ft 430 kts 301°
2026-05-08 16:24 40.90709 23.36772 38069 ft 430 kts 301°
2026-05-08 16:24 40.94075 23.30193 38063 ft 430 kts 301°
2026-05-08 16:25 40.97407 23.23671 38067 ft 430 kts 301°
2026-05-08 16:25 41.00754 23.17104 38071 ft 430 kts 301°
2026-05-08 16:26 41.04097 23.10533 38079 ft 430 kts 301°
2026-05-08 16:26 41.07436 23.03955 38067 ft 431 kts 301°
2026-05-08 16:27 41.10951 22.97509 38061 ft 433 kts 307°
2026-05-08 16:27 41.14835 22.91383 38064 ft 434 kts 307°
2026-05-08 16:28 41.18736 22.85255 38066 ft 434 kts 307°
2026-05-08 16:28 41.22633 22.79125 38057 ft 434 kts 307°
2026-05-08 16:29 41.26617 22.73168 38070 ft 434 kts 309°
2026-05-08 16:29 41.30693 22.67225 38062 ft 434 kts 309°
2026-05-08 16:30 41.34757 22.61272 38065 ft 434 kts 309°
2026-05-08 16:30 41.38817 22.55311 38055 ft 434 kts 309°
2026-05-08 16:31 41.42872 22.49345 38058 ft 435 kts 309°
2026-05-08 16:31 41.46932 22.43358 38054 ft 435 kts 309°
2026-05-08 16:32 41.50995 22.37358 38031 ft 434 kts 309°
2026-05-08 16:32 41.55023 22.31395 38038 ft 435 kts 309°
2026-05-08 16:33 41.59074 22.25385 38048 ft 434 kts 309°
2026-05-08 16:33 41.63117 22.19377 38024 ft 434 kts 309°
2026-05-08 16:34 41.67124 22.13411 38042 ft 434 kts 309°
2026-05-08 16:34 41.71151 22.07401 38038 ft 433 kts 309°
2026-05-08 16:35 41.75172 22.01387 38036 ft 433 kts 309°
2026-05-08 16:35 41.79197 21.95357 38024 ft 433 kts 309°
2026-05-08 16:36 41.83211 21.89331 38029 ft 433 kts 308°
2026-05-08 16:36 41.87228 21.83288 38022 ft 433 kts 308°
2026-05-08 16:37 41.91233 21.77251 38039 ft 433 kts 309°
2026-05-08 16:37 41.95217 21.71232 38015 ft 431 kts 309°
2026-05-08 16:38 41.99198 21.65205 38024 ft 431 kts 309°
2026-05-08 16:38 42.03156 21.59203 38021 ft 431 kts 309°
2026-05-08 16:39 42.07139 21.53149 38035 ft 431 kts 309°
2026-05-08 16:39 42.11120 21.47088 38037 ft 431 kts 309°
2026-05-08 16:40 42.15094 21.41026 38030 ft 431 kts 309°
2026-05-08 16:40 42.18886 21.35020 38042 ft 431 kts 308°
2026-05-08 16:41 42.22770 21.28863 38037 ft 431 kts 308°
2026-05-08 16:42 42.28572 21.19647 38046 ft 431 kts 308°
2026-05-08 16:42 42.32458 21.13459 38055 ft 431 kts 308°
2026-05-08 16:43 42.36329 21.07283 38044 ft 429 kts 308°
2026-05-08 16:43 42.40182 21.01123 38053 ft 429 kts 308°
2026-05-08 16:44 42.44028 20.94959 38046 ft 429 kts 308°
2026-05-08 16:44 42.47855 20.88815 38051 ft 429 kts 308°
2026-05-08 16:45 42.51704 20.82622 38058 ft 429 kts 308°
2026-05-08 16:45 42.55546 20.76427 38045 ft 429 kts 308°
2026-05-08 16:46 42.59377 20.70237 38040 ft 429 kts 308°
2026-05-08 16:46 42.63211 20.64029 38040 ft 429 kts 308°
2026-05-08 16:47 42.67043 20.57812 38041 ft 429 kts 308°
2026-05-08 16:47 42.70867 20.51594 38036 ft 429 kts 308°
2026-05-08 16:48 42.74666 20.45402 38043 ft 429 kts 308°
2026-05-08 16:48 42.78491 20.39159 38032 ft 429 kts 308°
2026-05-08 16:49 42.82309 20.32915 38033 ft 429 kts 308°
2026-05-08 16:49 42.86122 20.26655 38037 ft 429 kts 308°
2026-05-08 16:50 42.89927 20.20399 38027 ft 429 kts 308°
2026-05-08 16:50 42.93730 20.14134 38031 ft 429 kts 308°
2026-05-08 16:51 42.97529 20.07863 38035 ft 428 kts 307°
2026-05-08 16:51 43.01321 20.01589 38019 ft 428 kts 307°
2026-05-08 16:52 43.05107 19.95311 38014 ft 428 kts 307°
2026-05-08 16:52 43.08867 19.89065 38013 ft 428 kts 307°
2026-05-08 16:53 43.14542 19.79610 38023 ft 428 kts 307°
2026-05-08 16:53 43.18314 19.73309 38004 ft 427 kts 307°
2026-05-08 16:54 43.22084 19.66999 38013 ft 428 kts 307°
2026-05-08 16:54 43.25849 19.60681 38010 ft 427 kts 307°
2026-05-08 16:55 43.29605 19.54366 38014 ft 427 kts 307°
2026-05-08 16:55 43.33335 19.48084 38009 ft 427 kts 307°
2026-05-08 16:56 43.37084 19.41753 38012 ft 427 kts 307°
2026-05-08 16:56 43.40834 19.35408 38006 ft 427 kts 307°
2026-05-08 16:57 43.44576 19.29062 38005 ft 427 kts 307°
2026-05-08 16:57 43.48313 19.22713 38004 ft 427 kts 307°
2026-05-08 16:58 43.52028 19.16387 38005 ft 427 kts 307°
2026-05-08 16:58 43.55628 19.09969 38009 ft 426 kts 305°
2026-05-08 16:59 43.59243 19.03481 38008 ft 426 kts 305°
2026-05-08 16:59 43.62857 18.96992 38000 ft 426 kts 305°
2026-05-08 17:00 43.66445 18.90533 38017 ft 427 kts 305°
2026-05-08 17:00 43.70060 18.84011 38008 ft 427 kts 305°
2026-05-08 17:01 43.73672 18.77481 37998 ft 427 kts 305°
2026-05-08 17:01 43.77282 18.70939 38001 ft 427 kts 305°
2026-05-08 17:02 43.80885 18.64396 38008 ft 427 kts 305°
2026-05-08 17:02 43.83876 18.58954 38001 ft 428 kts 305°
2026-05-08 17:03 43.87480 18.52380 38005 ft 428 kts 305°
2026-05-08 17:03 43.91077 18.45806 38005 ft 428 kts 304°
2026-05-08 17:04 43.94669 18.39225 37985 ft 428 kts 304°
2026-05-08 17:04 43.98265 18.32625 38006 ft 428 kts 304°
2026-05-08 17:05 44.01839 18.26049 38008 ft 428 kts 304°
2026-05-08 17:05 44.05424 18.19435 38016 ft 428 kts 304°
2026-05-08 17:06 44.09007 18.12813 38022 ft 428 kts 304°
2026-05-08 17:06 44.12565 18.06220 38017 ft 428 kts 304°
2026-05-08 17:07 44.16143 17.99576 38019 ft 428 kts 304°
2026-05-08 17:07 44.19707 17.92943 38019 ft 428 kts 304°
2026-05-08 17:08 44.23273 17.86292 38014 ft 428 kts 304°
2026-05-08 17:08 44.26830 17.79639 38033 ft 428 kts 304°
2026-05-08 17:09 44.30386 17.72977 38020 ft 428 kts 304°
2026-05-08 17:09 44.33922 17.66334 38022 ft 428 kts 304°
2026-05-08 17:10 44.37471 17.59653 38036 ft 428 kts 304°
2026-05-08 17:10 44.41021 17.52953 38035 ft 428 kts 304°
2026-05-08 17:11 44.44568 17.46244 38041 ft 428 kts 303°
2026-05-08 17:11 44.48111 17.39527 38037 ft 429 kts 303°
2026-05-08 17:12 44.51650 17.32803 38039 ft 428 kts 303°
2026-05-08 17:12 44.55164 17.26110 38036 ft 429 kts 303°
2026-05-08 17:13 44.58691 17.19376 38058 ft 429 kts 303°
2026-05-08 17:13 44.62211 17.12644 38041 ft 427 kts 303°
2026-05-08 17:14 44.65728 17.05904 38034 ft 427 kts 303°
2026-05-08 17:14 44.69237 16.99161 38031 ft 427 kts 303°
2026-05-08 17:15 44.72843 16.92501 38038 ft 428 kts 304°
2026-05-08 17:15 44.76467 16.85917 38036 ft 428 kts 304°
2026-05-08 17:16 44.80110 16.79270 38042 ft 429 kts 304°
2026-05-08 17:16 44.83752 16.72612 38038 ft 429 kts 304°
2026-05-08 17:17 44.87388 16.65948 38037 ft 429 kts 304°
2026-05-08 17:17 44.91023 16.59270 38045 ft 429 kts 304°
2026-05-08 17:18 44.94650 16.52592 38035 ft 428 kts 304°
2026-05-08 17:18 44.98247 16.45952 38036 ft 428 kts 304°
2026-05-08 17:19 45.01874 16.39244 38026 ft 429 kts 304°
2026-05-08 17:19 45.05495 16.32529 38028 ft 429 kts 304°
2026-05-08 17:20 45.09109 16.25812 38025 ft 429 kts 304°
2026-05-08 17:20 45.12715 16.19093 38040 ft 428 kts 304°
2026-05-08 17:21 45.16319 16.12364 38040 ft 428 kts 304°
2026-05-08 17:21 45.19891 16.05676 38018 ft 428 kts 303°
2026-05-08 17:22 45.23508 15.98889 38023 ft 428 kts 303°
2026-05-08 17:22 45.27076 15.92179 38029 ft 428 kts 303°
2026-05-08 17:23 45.30660 15.85422 38028 ft 428 kts 303°
2026-05-08 17:23 45.34239 15.78659 38018 ft 428 kts 303°
2026-05-08 17:24 45.37797 15.71920 38022 ft 428 kts 303°
2026-05-08 17:24 45.41375 15.65126 38030 ft 428 kts 303°
2026-05-08 17:25 45.44949 15.58324 38033 ft 428 kts 303°
2026-05-08 17:25 45.48515 15.51521 38028 ft 428 kts 303°
2026-05-08 17:26 45.52049 15.44762 38042 ft 428 kts 303°
2026-05-08 17:26 45.55606 15.37943 38029 ft 428 kts 303°
2026-05-08 17:27 45.59155 15.31123 38029 ft 428 kts 303°
2026-05-08 17:27 45.62707 15.24282 38031 ft 428 kts 303°
2026-05-08 17:28 45.66247 15.17446 38027 ft 428 kts 303°
2026-05-08 17:28 45.69787 15.10595 38022 ft 428 kts 303°
2026-05-08 17:29 45.73299 15.03781 38040 ft 429 kts 303°
2026-05-08 17:29 45.76841 14.96891 38049 ft 430 kts 303°
2026-05-08 17:30 45.80390 14.89971 38024 ft 430 kts 302°
2026-05-08 17:30 45.83938 14.83037 38034 ft 430 kts 302°
2026-05-08 17:31 45.87452 14.76152 38025 ft 430 kts 302°
2026-05-08 17:31 45.90988 14.69208 38028 ft 431 kts 303°
2026-05-08 17:32 45.94530 14.62233 38024 ft 432 kts 302°
2026-05-08 17:32 45.98070 14.55246 38023 ft 432 kts 302°
2026-05-08 17:33 46.01604 14.48252 38023 ft 432 kts 302°
2026-05-08 17:33 46.05132 14.41255 38026 ft 432 kts 302°
2026-05-08 17:34 46.08631 14.34296 38024 ft 431 kts 302°
2026-05-08 17:34 46.12143 14.27295 38024 ft 431 kts 302°
2026-05-08 17:35 46.15659 14.20267 38023 ft 432 kts 302°
2026-05-08 17:35 46.19167 14.13238 38022 ft 432 kts 302°
2026-05-08 17:36 46.22678 14.06187 38047 ft 432 kts 302°
2026-05-08 17:36 46.26170 13.99154 38033 ft 430 kts 302°
2026-05-08 17:37 46.29636 13.92162 38031 ft 431 kts 302°
2026-05-08 17:37 46.33121 13.85115 38035 ft 432 kts 302°
2026-05-08 17:38 46.36611 13.78040 38038 ft 430 kts 302°
2026-05-08 17:38 46.40087 13.70977 38015 ft 432 kts 302°
2026-05-08 17:39 46.43565 13.63880 38061 ft 432 kts 300°
2026-05-08 17:39 46.46870 13.56617 38031 ft 430 kts 300°
2026-05-08 17:40 46.50179 13.49379 38045 ft 432 kts 300°
2026-05-08 17:40 46.53495 13.42118 38065 ft 430 kts 300°
2026-05-08 17:41 46.56803 13.34858 38070 ft 430 kts 300°
2026-05-08 17:41 46.60085 13.27634 38048 ft 430 kts 300°
2026-05-08 17:42 46.63388 13.20346 38067 ft 431 kts 300°
2026-05-08 17:42 46.66688 13.13044 38066 ft 431 kts 300°
2026-05-08 17:43 46.69962 13.05784 38067 ft 431 kts 300°
2026-05-08 17:43 46.73248 12.98473 38036 ft 430 kts 300°
2026-05-08 17:44 46.76533 12.91149 38058 ft 432 kts 300°
2026-05-08 17:44 46.79818 12.83805 38050 ft 431 kts 300°
2026-05-08 17:45 46.83091 12.76467 38054 ft 431 kts 300°
2026-05-08 17:45 46.86364 12.69112 38056 ft 431 kts 300°
2026-05-08 17:46 46.89607 12.61803 38058 ft 431 kts 300°
2026-05-08 17:46 46.92887 12.54391 38061 ft 434 kts 300°
2026-05-08 17:47 46.96148 12.47001 38062 ft 432 kts 300°
2026-05-08 17:47 46.98856 12.40851 38044 ft 432 kts 300°
2026-05-08 17:48 47.02659 12.32191 38050 ft 432 kts 300°
2026-05-08 17:48 47.05355 12.26034 38050 ft 431 kts 300°
2026-05-08 17:49 47.08597 12.18614 38041 ft 432 kts 300°
2026-05-08 17:49 47.12360 12.09972 38030 ft 432 kts 300°
2026-05-08 17:50 47.15067 12.03743 38036 ft 432 kts 300°
2026-05-08 17:50 47.18281 11.96333 38055 ft 433 kts 300°
2026-05-08 17:51 47.21421 11.88801 38025 ft 429 kts 293°
2026-05-08 17:51 47.24129 11.80945 38024 ft 430 kts 295°
2026-05-08 17:52 47.26892 11.73121 38021 ft 430 kts 295°
2026-05-08 17:53 47.31036 11.61403 38002 ft 430 kts 295°
2026-05-08 17:53 47.33789 11.53589 38003 ft 429 kts 295°
2026-05-08 17:54 47.36522 11.45808 37995 ft 430 kts 295°
2026-05-08 17:54 47.39266 11.37975 38000 ft 429 kts 295°
2026-05-08 17:55 47.42005 11.30133 37999 ft 429 kts 295°
2026-05-08 17:55 47.44744 11.22266 38023 ft 429 kts 295°
2026-05-08 17:56 47.47449 11.14473 38032 ft 428 kts 295°
2026-05-08 17:56 47.50166 11.06623 38040 ft 429 kts 295°
2026-05-08 17:57 47.52886 10.98740 38031 ft 429 kts 295°
2026-05-08 17:57 47.55598 10.90858 38057 ft 429 kts 295°
2026-05-08 17:58 47.58281 10.83034 38062 ft 428 kts 295°
2026-05-08 17:58 47.60980 10.75141 38059 ft 428 kts 295°
2026-05-08 17:59 47.63664 10.67268 38063 ft 428 kts 295°
2026-05-08 17:59 47.66344 10.59382 38054 ft 428 kts 294°
2026-05-08 18:00 47.69020 10.51489 38056 ft 428 kts 295°
2026-05-08 18:00 47.73143 10.39683 38036 ft 431 kts 304°
2026-05-08 18:01 47.75159 10.36447 38040 ft 434 kts 319°
2026-05-08 18:01 47.77741 10.34078 38053 ft 441 kts 333°
2026-05-08 18:01 47.83593 10.31084 38038 ft 447 kts 339°
2026-05-08 18:02 47.88523 10.28798 38044 ft 447 kts 340°
2026-05-08 18:02 47.95489 10.25661 38051 ft 447 kts 340°
2026-05-08 18:03 48.01444 10.22990 38066 ft 447 kts 340°
2026-05-08 18:03 48.07403 10.20312 38048 ft 446 kts 340°
2026-05-08 18:04 48.13341 10.17638 38042 ft 446 kts 340°
2026-05-08 18:04 48.19290 10.14951 38025 ft 446 kts 340°
2026-05-08 18:05 48.25234 10.12261 38024 ft 447 kts 340°
2026-05-08 18:05 48.31155 10.09574 38030 ft 447 kts 340°
2026-05-08 18:06 48.37104 10.06868 38032 ft 447 kts 340°
2026-05-08 18:06 48.43050 10.04157 38033 ft 447 kts 340°
2026-05-08 18:07 48.49004 10.01436 38043 ft 446 kts 340°
2026-05-08 18:07 48.54950 9.98711 38063 ft 447 kts 340°
2026-05-08 18:08 48.60899 9.95978 38057 ft 447 kts 340°
2026-05-08 18:08 48.66864 9.93234 38056 ft 447 kts 340°
2026-05-08 18:09 48.72312 9.89192 38053 ft 435 kts 314°
2026-05-08 18:09 48.76130 9.82143 38056 ft 434 kts 304°
2026-05-08 18:10 48.79645 9.74715 38053 ft 433 kts 303°
2026-05-08 18:10 48.83094 9.67203 38058 ft 433 kts 302°
2026-05-08 18:11 48.86520 9.59669 38058 ft 433 kts 302°
2026-05-08 18:11 48.89938 9.52125 38057 ft 434 kts 302°
2026-05-08 18:12 48.93352 9.44568 38057 ft 434 kts 302°
2026-05-08 18:12 48.96766 9.36990 38049 ft 434 kts 302°
2026-05-08 18:13 49.00175 9.29403 38053 ft 434 kts 302°
2026-05-08 18:13 49.03560 9.21848 38052 ft 434 kts 302°
2026-05-08 18:14 49.06963 9.14230 38051 ft 435 kts 302°
2026-05-08 18:14 49.10362 9.06599 38054 ft 435 kts 302°
2026-05-08 18:15 49.13754 8.98963 38056 ft 435 kts 302°
2026-05-08 18:15 49.17148 8.91301 38056 ft 435 kts 302°
2026-05-08 18:16 49.20530 8.83643 38066 ft 435 kts 302°
2026-05-08 18:16 49.23916 8.75954 38065 ft 435 kts 302°
2026-05-08 18:17 49.27275 8.68306 38069 ft 435 kts 302°
2026-05-08 18:17 49.30648 8.60604 38070 ft 435 kts 302°
2026-05-08 18:18 49.34016 8.52889 38072 ft 435 kts 302°
2026-05-08 18:18 49.37380 8.45162 38074 ft 435 kts 302°
2026-05-08 18:19 49.40735 8.37433 38064 ft 435 kts 302°
2026-05-08 18:19 49.44084 8.29695 38064 ft 435 kts 302°
2026-05-08 18:20 49.47436 8.21930 38069 ft 435 kts 302°
2026-05-08 18:20 49.50781 8.14156 38070 ft 436 kts 302°
2026-05-08 18:21 49.54119 8.06375 38073 ft 435 kts 301°
2026-05-08 18:21 49.57433 7.98630 38069 ft 435 kts 301°
2026-05-08 18:22 49.60764 7.90820 38068 ft 435 kts 301°
2026-05-08 18:22 49.64075 7.83036 38074 ft 436 kts 301°
2026-05-08 18:23 49.67392 7.75212 38073 ft 435 kts 301°
2026-05-08 18:23 49.70705 7.67377 38080 ft 435 kts 301°
2026-05-08 18:24 49.74010 7.59538 38080 ft 435 kts 301°
2026-05-08 18:24 49.77315 7.51672 38082 ft 435 kts 301°
2026-05-08 18:25 49.80612 7.43805 38081 ft 435 kts 301°
2026-05-08 18:25 49.83906 7.35922 38081 ft 436 kts 301°
2026-05-08 18:26 49.87191 7.28035 38083 ft 436 kts 301°
2026-05-08 18:26 49.90474 7.20132 38082 ft 435 kts 301°
2026-05-08 18:27 49.93192 7.13574 38103 ft 435 kts 301°
2026-05-08 18:27 49.96996 7.04370 38101 ft 435 kts 301°
2026-05-08 18:28 50.00263 6.96443 38070 ft 435 kts 301°
2026-05-08 18:28 50.03377 6.88381 38074 ft 434 kts 297°
2026-05-08 18:29 50.06295 6.80134 38063 ft 434 kts 298°
2026-05-08 18:29 50.09224 6.71930 38069 ft 434 kts 298°
2026-05-08 18:30 50.12154 6.63712 38068 ft 434 kts 298°
2026-05-08 18:30 50.15082 6.55473 38078 ft 434 kts 298°
2026-05-08 18:31 50.17981 6.47291 38089 ft 434 kts 298°
2026-05-08 18:31 50.21384 6.39501 38072 ft 435 kts 303°
2026-05-08 18:32 50.24819 6.31723 38085 ft 434 kts 303°
2026-05-08 18:32 50.28226 6.23919 38077 ft 434 kts 303°
2026-05-08 18:33 50.31607 6.16144 38079 ft 434 kts 303°
2026-05-08 18:33 50.34998 6.08323 38074 ft 434 kts 303°
2026-05-08 18:34 50.37812 6.01812 38080 ft 434 kts 303°
2026-05-08 18:34 50.41209 5.94007 38075 ft 433 kts 306°
2026-05-08 18:35 50.44888 5.86573 38039 ft 430 kts 296°
2026-05-08 18:35 50.47931 5.78458 38093 ft 432 kts 302°
2026-05-08 18:36 50.51243 5.70551 38079 ft 433 kts 303°
2026-05-08 18:36 50.54585 5.62681 38075 ft 432 kts 303°
2026-05-08 18:37 50.57924 5.54821 38078 ft 432 kts 303°
2026-05-08 18:37 50.61246 5.46975 38079 ft 430 kts 303°
2026-05-08 18:38 50.64562 5.39120 38103 ft 430 kts 303°
2026-05-08 18:38 50.67873 5.31256 38104 ft 430 kts 303°
2026-05-08 18:39 50.71155 5.23436 38100 ft 430 kts 303°
2026-05-08 18:39 50.74454 5.15552 38095 ft 430 kts 303°
2026-05-08 18:40 50.77741 5.07675 38098 ft 427 kts 303°
2026-05-08 18:40 50.80996 4.99849 38088 ft 426 kts 303°
2026-05-08 18:41 50.84251 4.91998 38091 ft 426 kts 303°
2026-05-08 18:41 50.87498 4.84146 38097 ft 426 kts 303°
2026-05-08 18:42 50.90739 4.76282 38099 ft 426 kts 303°
2026-05-08 18:42 50.93970 4.68420 38098 ft 426 kts 303°
2026-05-08 18:43 50.97170 4.60610 38099 ft 422 kts 303°
2026-05-08 18:43 51.00363 4.52793 38102 ft 422 kts 302°
2026-05-08 18:44 51.03522 4.45036 38101 ft 422 kts 302°
2026-05-08 18:44 51.06710 4.37185 38104 ft 422 kts 302°
2026-05-08 18:45 51.09891 4.29327 38104 ft 422 kts 302°
2026-05-08 18:45 51.13069 4.21452 38102 ft 422 kts 302°
2026-05-08 18:46 51.16222 4.13615 38101 ft 422 kts 302°
2026-05-08 18:46 51.19396 4.05704 38095 ft 422 kts 302°
2026-05-08 18:47 51.22554 3.97808 38093 ft 422 kts 302°
2026-05-08 18:47 51.25706 3.89905 38085 ft 422 kts 302°
2026-05-08 18:48 51.28857 3.81985 38098 ft 422 kts 302°
2026-05-08 18:48 51.32002 3.74059 38070 ft 422 kts 302°
2026-05-08 18:49 51.33560 3.70123 37846 ft 415 kts 302°
2026-05-08 18:49 51.35034 3.66189 37574 ft 409 kts 298°
2026-05-08 18:49 51.36066 3.61997 37298 ft 404 kts 284°
2026-05-08 18:49 51.36718 3.57635 37056 ft 402 kts 287°
2026-05-08 18:50 51.37473 3.53333 36810 ft 400 kts 287°
2026-05-08 18:50 51.38223 3.49058 36567 ft 398 kts 287°
2026-05-08 18:50 51.38969 3.44801 36326 ft 396 kts 288°
2026-05-08 18:50 51.39700 3.40620 36089 ft 393 kts 288°
2026-05-08 18:51 51.40433 3.36418 35858 ft 391 kts 288°
2026-05-08 18:51 51.41161 3.32234 35616 ft 388 kts 288°
2026-05-08 18:51 51.41880 3.28097 35370 ft 383 kts 288°
2026-05-08 18:51 51.42589 3.24008 34927 ft 379 kts 288°
2026-05-08 18:52 51.43297 3.19919 34351 ft 380 kts 289°
2026-05-08 18:52 51.44002 3.15834 33766 ft 380 kts 289°
2026-05-08 18:52 51.44700 3.11760 33247 ft 377 kts 289°
2026-05-08 18:52 51.45366 3.07750 32745 ft 375 kts 289°
2026-05-08 18:53 51.46032 3.03730 32299 ft 372 kts 289°
2026-05-08 18:53 51.46693 2.99741 31911 ft 367 kts 289°
2026-05-08 18:53 51.47344 2.95801 31510 ft 363 kts 289°
2026-05-08 18:53 51.47988 2.91899 31104 ft 360 kts 289°
2026-05-08 18:54 51.48624 2.88030 30684 ft 357 kts 289°
2026-05-08 18:54 51.49302 2.84214 30274 ft 353 kts 292°
2026-05-08 18:54 51.49976 2.80431 29827 ft 353 kts 285°
2026-05-08 18:54 51.50534 2.76625 29436 ft 348 kts 287°
2026-05-08 18:55 51.51714 2.69177 28688 ft 340 kts 287°
2026-05-08 18:55 51.52304 2.65512 28313 ft 337 kts 287°
2026-05-08 18:55 51.52890 2.61884 27951 ft 334 kts 287°
2026-05-08 18:56 51.53470 2.58294 27587 ft 331 kts 287°
2026-05-08 18:56 51.54036 2.54783 27252 ft 328 kts 287°
2026-05-08 18:56 51.54612 2.51216 26893 ft 333 kts 287°
2026-05-08 18:56 51.55365 2.47681 26490 ft 336 kts 292°
2026-05-08 18:57 51.56173 2.44149 26142 ft 338 kts 291°
2026-05-08 18:57 51.56712 2.41750 25919 ft 338 kts 291°
2026-05-08 18:57 51.57759 2.37033 25444 ft 337 kts 291°
2026-05-08 18:57 51.58568 2.33501 25048 ft 336 kts 291°
2026-05-08 18:58 51.59374 2.29981 24695 ft 334 kts 291°
2026-05-08 18:58 51.60172 2.26475 24362 ft 332 kts 291°
2026-05-08 18:58 51.60964 2.22991 24019 ft 330 kts 291°
2026-05-08 18:58 51.61750 2.19525 23672 ft 329 kts 291°
2026-05-08 18:59 51.62523 2.16107 23266 ft 327 kts 291°
2026-05-08 18:59 51.63440 2.12777 22846 ft 324 kts 305°
2026-05-08 18:59 51.64988 2.10171 22367 ft 323 kts 325°
2026-05-08 18:59 51.66920 2.08308 21911 ft 324 kts 330°
2026-05-08 19:00 51.68879 2.06533 21493 ft 323 kts 330°
2026-05-08 19:00 51.70843 2.04803 21172 ft 320 kts 331°
2026-05-08 19:00 51.72794 2.03106 20847 ft 317 kts 331°
2026-05-08 19:00 51.74741 2.01427 20512 ft 315 kts 331°
2026-05-08 19:01 51.76665 1.99778 20174 ft 313 kts 331°
2026-05-08 19:01 51.78581 1.98139 19841 ft 311 kts 330°
2026-05-08 19:01 51.80464 1.96530 19517 ft 309 kts 330°
2026-05-08 19:01 51.82361 1.94907 19191 ft 308 kts 330°
2026-05-08 19:02 51.84251 1.93289 18861 ft 307 kts 330°
2026-05-08 19:02 51.86132 1.91677 18531 ft 306 kts 330°
2026-05-08 19:02 51.88017 1.90057 18179 ft 308 kts 329°
2026-05-08 19:02 51.89679 1.87911 17996 ft 308 kts 308°
2026-05-08 19:03 51.90824 1.84983 17620 ft 307 kts 297°
2026-05-08 19:03 51.91877 1.81969 17329 ft 307 kts 297°
2026-05-08 19:03 51.92913 1.78938 17054 ft 307 kts 297°
2026-05-08 19:03 51.93936 1.75904 16779 ft 305 kts 297°
2026-05-08 19:04 51.94940 1.72890 16508 ft 304 kts 296°
2026-05-08 19:04 51.95937 1.69879 16246 ft 302 kts 296°
2026-05-08 19:04 51.96925 1.66883 15984 ft 301 kts 296°
2026-05-08 19:04 51.97909 1.63890 15717 ft 300 kts 296°
2026-05-08 19:05 51.98887 1.60911 15450 ft 298 kts 296°
2026-05-08 19:05 51.99861 1.57941 15195 ft 297 kts 296°
2026-05-08 19:05 52.00818 1.55015 14936 ft 296 kts 296°
2026-05-08 19:05 52.01781 1.52070 14677 ft 295 kts 296°
2026-05-08 19:06 52.02742 1.49129 14423 ft 294 kts 296°
2026-05-08 19:06 52.03700 1.46193 14168 ft 293 kts 296°
2026-05-08 19:06 52.04656 1.43254 13908 ft 293 kts 296°
2026-05-08 19:06 52.05605 1.40338 13616 ft 292 kts 296°
2026-05-08 19:07 52.06552 1.37425 13303 ft 291 kts 296°
2026-05-08 19:07 52.07497 1.34516 13054 ft 289 kts 296°
2026-05-08 19:07 52.08431 1.31635 12812 ft 287 kts 296°
2026-05-08 19:07 52.09350 1.28800 12566 ft 285 kts 296°
2026-05-08 19:08 52.10270 1.25956 12317 ft 284 kts 296°
2026-05-08 19:08 52.11165 1.23103 12126 ft 280 kts 290°
2026-05-08 19:08 52.11482 1.20035 11912 ft 275 kts 264°
2026-05-08 19:08 52.11102 1.17002 11718 ft 274 kts 256°
2026-05-08 19:09 52.10645 1.13986 11528 ft 274 kts 256°
2026-05-08 19:09 52.10171 1.10976 11332 ft 274 kts 255°
2026-05-08 19:09 52.09690 1.07983 11144 ft 273 kts 255°
2026-05-08 19:09 52.09209 1.05040 10963 ft 272 kts 255°
2026-05-08 19:10 52.08720 1.02077 10780 ft 270 kts 255°
2026-05-08 19:10 52.08230 0.99131 10597 ft 270 kts 255°
2026-05-08 19:10 52.07739 0.96190 10419 ft 270 kts 255°
2026-05-08 19:10 52.07248 0.93258 10252 ft 269 kts 255°
2026-05-08 19:11 52.06757 0.90331 10067 ft 268 kts 255°
2026-05-08 19:11 52.06267 0.87409 9880 ft 267 kts 255°
2026-05-08 19:11 52.05777 0.84499 9682 ft 267 kts 255°
2026-05-08 19:11 52.05288 0.81602 9498 ft 265 kts 255°
2026-05-08 19:12 52.04801 0.78721 9314 ft 264 kts 255°
2026-05-08 19:12 52.04314 0.75841 9133 ft 265 kts 255°
2026-05-08 19:12 52.03824 0.72957 8948 ft 265 kts 255°
2026-05-08 19:12 52.03334 0.70069 8763 ft 264 kts 255°
2026-05-08 19:13 52.02847 0.67207 8587 ft 263 kts 255°
2026-05-08 19:13 52.02355 0.64336 8425 ft 264 kts 254°
2026-05-08 19:13 52.01853 0.61465 8250 ft 263 kts 254°
2026-05-08 19:13 52.01362 0.58650 8184 ft 262 kts 254°
2026-05-08 19:14 52.00862 0.55787 8176 ft 264 kts 254°
2026-05-08 19:14 52.00362 0.52926 8170 ft 264 kts 254°
2026-05-08 19:14 51.99859 0.50049 8181 ft 265 kts 254°
2026-05-08 19:14 51.99357 0.47173 8189 ft 264 kts 254°
2026-05-08 19:15 51.98858 0.44299 8186 ft 265 kts 254°
2026-05-08 19:15 51.98361 0.41428 8185 ft 264 kts 254°
2026-05-08 19:15 51.97862 0.38551 8186 ft 264 kts 254°
2026-05-08 19:15 51.97363 0.35682 8227 ft 264 kts 254°
2026-05-08 19:16 51.96863 0.32804 8229 ft 265 kts 254°
2026-05-08 19:16 51.96368 0.29959 8195 ft 265 kts 254°
2026-05-08 19:16 51.95868 0.27086 8189 ft 265 kts 254°
2026-05-08 19:16 51.95366 0.24209 8172 ft 264 kts 254°
2026-05-08 19:17 51.94694 0.21464 8132 ft 261 kts 238°
2026-05-08 19:17 51.93621 0.19119 7876 ft 259 kts 231°
2026-05-08 19:17 51.92466 0.16832 7457 ft 262 kts 227°
2026-05-08 19:17 51.91054 0.14972 7128 ft 262 kts 212°
2026-05-08 19:18 51.89527 0.13364 6812 ft 261 kts 215°
2026-05-08 19:18 51.88062 0.11622 6493 ft 261 kts 219°
2026-05-08 19:18 51.86718 0.09664 6183 ft 259 kts 223°
2026-05-08 19:18 51.85850 0.08330 5958 ft 260 kts 223°
2026-05-08 19:19 51.84131 0.05660 5513 ft 259 kts 223°
2026-05-08 19:19 51.82806 0.03602 4938 ft 269 kts 223°
2026-05-08 19:19 51.81441 0.01440 4302 ft 280 kts 223°
2026-05-08 19:19 51.80032 -0.00798 3689 ft 288 kts 223°
2026-05-08 19:20 51.78474 -0.02778 3371 ft 281 kts 204°
2026-05-08 19:20 51.77868 -0.03170 3310 ft 277 kts 195°
2026-05-08 19:20 51.75441 -0.03224 3123 ft 255 kts 162°
2026-05-08 19:20 51.73961 -0.01862 3042 ft 236 kts 135°
2026-05-08 19:21 51.73150 0.00249 2971 ft 213 kts 107°
2026-05-08 19:21 51.73135 0.02551 2866 ft 204 kts 76°
2026-05-08 19:21 51.73881 0.04391 2816 ft 199 kts 42°
2026-05-08 19:21 51.75138 0.05417 2777 ft 207 kts 22°
2026-05-08 19:22 51.76495 0.06258 2675 ft 210 kts 26°
2026-05-08 19:22 51.77754 0.07420 2560 ft 208 kts 39°
2026-05-08 19:22 51.78846 0.08937 2505 ft 207 kts 47°
2026-05-08 19:22 51.79874 0.10559 2410 ft 205 kts 46°
2026-05-08 19:23 51.80884 0.12083 2187 ft 191 kts 45°
2026-05-08 19:23 51.81811 0.13463 1954 ft 171 kts 46°
2026-05-08 19:23 51.82657 0.14733 1737 ft 164 kts 46°
2026-05-08 19:23 51.83468 0.15946 1514 ft 151 kts 46°
2026-05-08 19:24 51.84210 0.17056 1366 ft 142 kts 46°
2026-05-08 19:24 51.84927 0.18130 1120 ft 139 kts 47°
2026-05-08 19:24 51.85634 0.19191 943 ft 138 kts 46°
2026-05-08 19:24 51.86333 0.20240 753 ft 137 kts 45°
2026-05-08 19:25 51.87033 0.21285 562 ft 136 kts 46°
2026-05-08 19:25 51.87722 0.22322 401 ft 135 kts 46°
2026-05-08 19:25 51.88359 0.23288 344 ft 100 kts 41°
2026-05-08 19:25 51.88713 0.23798 344 ft 56 kts 43°
2026-05-08 19:26 51.88882 0.24234 352 ft 30 kts 70°
2026-05-08 19:26 51.88916 0.24478 362 ft 17 kts 110°
2026-05-08 19:26 51.88952 0.24643 358 ft 18 kts 43°
2026-05-08 19:26 51.89051 0.24790 362 ft 21 kts 42°
2026-05-08 19:27 51.89163 0.24957 355 ft 23 kts 42°
2026-05-08 19:27 51.89239 0.25148 358 ft 18 kts 96°
2026-05-08 19:27 51.89151 0.25292 355 ft 20 kts 144°
2026-05-08 19:27 51.89053 0.25454 357 ft 22 kts 134°
2026-05-08 19:28 51.89028 0.25498 357 ft 2 kts 134°
2026-05-08 19:28 51.89007 0.25515 356 ft 4 kts 177°
2026-05-08 19:28 51.88990 0.25495 359 ft 1 kts 249°
2026-05-08 19:28 51.88979 0.25468 355 ft 4 kts 224°
2026-05-08 19:29 51.88974 0.25460 355 ft 0 kts 223°